sat.trackr.live / text

‹ back to catalog

STARLINK-36089

NORAD 66947 · 2025-286Y

PAYLOAD ACTIVE UNKNOWN

§ Identity

Operator
Country
US
Launch date
2025-12-07
Launch site
AFWTR
Launch vehicle
Mass (kg)
RCS (m²)

Purposes: comms

External: N2YO · Heavens-Above · Gunter

§ Orbital elements

Epoch: 2026-09-20T05:30:30.152160Z

Period
93.85 min
Inclination
53.1572°
Eccentricity
0.0001204
Mean motion
15.34410979 rev/d
Perigee alt
461.8 km
Apogee alt
463.5 km
Semi-major
6,840.8 km
B*
4.4017e-4
RAAN
171.1472°
Arg perigee
93.9176°
Mean anomaly
266.1964°
Rev number
4,525

§ Raw data

STARLINK-360891 66947U 25286Y   26263.22951565  .00014530  00000+0  44017-3 0  99902 66947  53.1572 171.1472 0001204  93.9176 266.1964 15.34410979 45255

JSON: /api/v1/satellites/66947 · /tle

For live sub-satellite position, see the globe view (requires WebGL).

§ Visibility from observer

Set your observer location to see the next 7 days of passes ≥ 10°. The values pass through the URL so the page stays shareable.

No JS? Fill the form by hand. The geolocation button needs JavaScript.